Weather History for Cork, Ireland

Change the Weather History Date:

Wednesday, September 11, 2013

  Actual Average Record
Temperature  
Mean Temperature 60 °F -  
Max Temperature 67 °F 59 °F 68 °F (2000)
Min Temperature 52 °F 48 °F 33 °F (2000)
Degree Days  
Heating Degree Days 6    
Growing Degree Days 10 (Base 50)    
Moisture  
Dew Point 55 °F    
Average Humidity 88    
Maximum Humidity 100    
Minimum Humidity 72    
Precipitation  
Precipitation 0.00 in 0.14 in - ()
Sea Level Pressure  
Sea Level Pressure 30.30 in    
Wind  
Wind Speed 11 mph ()    
Max Wind Speed 21 mph    
Max Gust Speed -    
Visibility 6.8 miles    
Events Rain    
Averages and records for this station are not official NWS values.
T = Trace of Precipitation, MM = Missing Value Source: Averaged Metar Reports

Daily Weather History Graph

Daily Weather History Graph

Search for Another Location

Airport:

Trip Planner

Search our weather history database for the weather conditions in past years. The results will help you decide how hot, cold, wet, or windy it might be!

Date:

Astronomy

Sep. 11, 2013 Rise Set
Actual Time 7:02 AM IST 7:57 PM IST
Civil Twilight 6:28 AM IST 8:31 PM IST
Nautical Twilight 5:46 AM IST 9:12 PM IST
Astronomical Twilight 5:02 AM IST 9:56 PM IST
Moon 2:03 PM IST (9/11) 10:54 PM IST (9/11)
Length of Visible Light 14h 03m
Length of Day
12h 55m
Waxing Crescent, 36% of the Moon is Illuminated
Sep 11
Waxing Crescent
Sep 12
First Quarter
Sep 19
Full
Sep 27
Last Quarter
Oct 5
New

Hourly Weather History & Observations

Time (IST) Temp. Dew Point Humidity Pressure Visibility Wind Dir Wind Speed Gust Speed Precip Events Conditions
12:00 AM 53.6 °F 50.0 °F 88% 30.39 in 6.2 mi NW 8.1 mph - N/A   Mostly Cloudy
12:30 AM 53.6 °F 50.0 °F 88% 30.39 in 6.2 mi NW 13.8 mph - N/A   Mostly Cloudy
1:00 AM 54 °F 51 °F 85% 30.40 in 12 mi NNW 13.4 mph - -   Mostly Cloudy
1:00 AM 53.6 °F 50.0 °F 88% 30.39 in 6.2 mi NNW 13.8 mph - N/A   Mostly Cloudy
1:30 AM 53.6 °F 50.0 °F 88% 30.39 in 6.2 mi NW 5.8 mph - N/A   Mostly Cloudy
2:00 AM 53.6 °F 50.0 °F 88% 30.39 in 6.2 mi NNW 8.1 mph - N/A   Mostly Cloudy
2:30 AM 53.6 °F 50.0 °F 88% 30.36 in 6.2 mi NNW 16.1 mph - N/A   Mostly Cloudy
3:00 AM 53.6 °F 50.0 °F 88% 30.36 in 6.2 mi NNW 6.9 mph - N/A   Mostly Cloudy
3:30 AM 53.6 °F 50.0 °F 88% 30.36 in 6.2 mi NW 9.2 mph - N/A   Mostly Cloudy
4:00 AM 53.6 °F 50.0 °F 88% 30.36 in 6.2 mi NW 10.4 mph - N/A   Mostly Cloudy
4:30 AM 53.6 °F 51.8 °F 94% 30.36 in 6.2 mi NW 9.2 mph - N/A   Mostly Cloudy
5:00 AM 53.6 °F 53.6 °F 100% 30.36 in 6.2 mi NW 8.1 mph - N/A   Mostly Cloudy
5:30 AM 53.6 °F 53.6 °F 100% 30.36 in 6.2 mi WNW 6.9 mph - N/A   Mostly Cloudy
6:00 AM 53.6 °F 53.6 °F 100% 30.33 in 6.2 mi WNW 10.4 mph - N/A   Mostly Cloudy
6:30 AM 55.4 °F 53.6 °F 94% 30.36 in 6.2 mi WNW 10.4 mph - N/A   Mostly Cloudy
7:00 AM 55 °F 54 °F 95% 30.36 in 16 mi WNW 8.9 mph - -   Partly Cloudy
7:00 AM 55.4 °F 53.6 °F 94% 30.36 in 6.2 mi WNW 8.1 mph - N/A   Mostly Cloudy
7:30 AM 55.4 °F 53.6 °F 94% 30.33 in 6.2 mi WNW 9.2 mph - N/A   Mostly Cloudy
8:00 AM 57.2 °F 53.6 °F 88% 30.33 in 6.2 mi WNW 8.1 mph - N/A   Mostly Cloudy
8:30 AM 57.2 °F 55.4 °F 94% 30.33 in 6.2 mi NW 9.2 mph - N/A   Scattered Clouds
9:00 AM 59.0 °F 55.4 °F 88% 30.33 in 6.2 mi WNW 12.7 mph - N/A   Scattered Clouds
9:30 AM 59.0 °F 55.4 °F 88% 30.33 in 6.2 mi NW 12.7 mph - N/A   Scattered Clouds
10:00 AM 60.8 °F 55.4 °F 82% 30.33 in 6.2 mi WNW 16.1 mph - N/A   Scattered Clouds
10:30 AM 62.6 °F 55.4 °F 77% 30.33 in 6.2 mi WNW 16.1 mph - N/A   Mostly Cloudy
11:00 AM 62.6 °F 55.4 °F 77% 30.30 in 6.2 mi WNW 16.1 mph - N/A   Mostly Cloudy
11:30 AM 62.6 °F 55.4 °F 77% 30.30 in 6.2 mi NW 13.8 mph - N/A   Mostly Cloudy
12:00 PM 62.6 °F 53.6 °F 72% 30.30 in 6.2 mi WNW 16.1 mph - N/A   Mostly Cloudy
12:30 PM 62.6 °F 55.4 °F 77% 30.27 in 6.2 mi WNW 17.3 mph - N/A   Mostly Cloudy
1:00 PM 61 °F 58 °F 85% 30.30 in 19 mi WNW 15.7 mph - - Rain Light Rain
1:00 PM 60.8 °F 57.2 °F 88% 30.30 in 6.2 mi WNW 15.0 mph - N/A Rain Light Rain
1:30 PM 62.6 °F 57.2 °F 82% 30.27 in 6.2 mi NW 17.3 mph - N/A   Mostly Cloudy
2:00 PM 64.4 °F 59.0 °F 83% 30.27 in 6.2 mi NW 16.1 mph - N/A   Mostly Cloudy
2:30 PM 66.2 °F 59.0 °F 78% 30.27 in 6.2 mi WNW 13.8 mph - N/A   Mostly Cloudy
3:00 PM 66.2 °F 60.8 °F 83% 30.24 in 6.2 mi WNW 17.3 mph - N/A   Mostly Cloudy
3:30 PM 64.4 °F 59.0 °F 83% 30.24 in 6.2 mi WNW 20.7 mph - N/A   Mostly Cloudy
4:00 PM 66.2 °F 59.0 °F 78% 30.24 in 6.2 mi NW 19.6 mph - N/A   Scattered Clouds
4:30 PM 66.2 °F 59.0 °F 78% 30.24 in 6.2 mi WNW 17.3 mph - N/A   Mostly Cloudy
5:00 PM 62.6 °F 59.0 °F 88% 30.24 in 6.2 mi WNW 20.7 mph - N/A   Mostly Cloudy
5:30 PM 64.4 °F 59.0 °F 83% 30.24 in 6.2 mi NW 18.4 mph - N/A   Mostly Cloudy
6:00 PM 62.6 °F 59.0 °F 88% 30.24 in 6.2 mi NW 16.1 mph - N/A   Scattered Clouds
6:30 PM 62.6 °F 59.0 °F 88% 30.24 in 6.2 mi NW 18.4 mph - N/A   Mostly Cloudy
7:00 PM 62 °F 58 °F 82% 30.24 in 25 mi NW 17.9 mph - -   Partly Cloudy
7:00 PM 60.8 °F 57.2 °F 88% 30.21 in 6.2 mi NW 18.4 mph - N/A   Mostly Cloudy
7:30 PM 60.8 °F 57.2 °F 88% 30.21 in 6.2 mi NW 20.7 mph - N/A   Mostly Cloudy
8:00 PM 60.8 °F 57.2 °F 88% 30.21 in 6.2 mi NW 17.3 mph - N/A   Mostly Cloudy
8:30 PM 59.0 °F 57.2 °F 94% 30.21 in 6.2 mi WNW 18.4 mph - N/A   Mostly Cloudy
9:00 PM 59.0 °F 57.2 °F 94% 30.21 in 6.2 mi WNW 17.3 mph - N/A   Mostly Cloudy
9:30 PM 59.0 °F 57.2 °F 94% 30.21 in 6.2 mi NW 15.0 mph - N/A   Mostly Cloudy
10:00 PM 59.0 °F 57.2 °F 94% 30.21 in 6.2 mi WNW 11.5 mph - N/A   Overcast
10:30 PM 59.0 °F 57.2 °F 94% 30.21 in 6.2 mi NNW 5.8 mph - N/A   Mostly Cloudy
11:00 PM 59.0 °F 57.2 °F 94% 30.21 in 6.2 mi NW 5.8 mph - N/A   Mostly Cloudy
11:30 PM 59.0 °F 57.2 °F 94% 30.21 in 6.2 mi WNW 5.8 mph - N/A   Mostly Cloudy